NRT262 KIAH-KELP

Flight info

Callsign NRT262
Flight time 1h 36m
Altitude 36000
Route PITZZ5 CRGER TXSAS BEAHR3
Aircraft B77L/H-SDE1E2E3FGHIJ2J3J4J5M1RWXY/LB1D1

Departure

Time 2026-05-09 03:58
Airport George Bush Intercontinental Airport (KIAH)

Arrival

Time 2026-05-09 05:35
Airport El Paso International Airport (KELP)
Time Latitude Longitude Altitude Speed Heading
2026-05-09 03:16 29.99749 -95.31105 111 ft 0 kts 180°
2026-05-09 03:38 29.99768 -95.31105 109 ft 4 kts 180°
2026-05-09 03:38 29.99790 -95.31106 108 ft 3 kts 180°
2026-05-09 03:38 29.99816 -95.31103 108 ft 4 kts 200°
2026-05-09 03:38 29.99835 -95.31090 108 ft 4 kts 236°
2026-05-09 03:39 29.99842 -95.31069 107 ft 3 kts 270°
2026-05-09 03:39 29.99842 -95.31039 107 ft 2 kts 270°
2026-05-09 03:39 29.99842 -95.31036 107 ft 1 kts 270°
2026-05-09 03:43 29.99842 -95.31045 107 ft 6 kts 271°
2026-05-09 03:43 29.99842 -95.31121 108 ft 11 kts 270°
2026-05-09 03:43 29.99842 -95.31180 111 ft 4 kts 270°
2026-05-09 03:43 29.99842 -95.31189 112 ft 0 kts 270°
2026-05-09 03:44 29.99842 -95.31190 112 ft 0 kts 270°
2026-05-09 03:44 29.99839 -95.31248 112 ft 11 kts 257°
2026-05-09 03:44 29.99777 -95.31293 110 ft 12 kts 183°
2026-05-09 03:44 29.99686 -95.31294 110 ft 14 kts 180°
2026-05-09 03:45 29.99584 -95.31293 112 ft 15 kts 180°
2026-05-09 03:45 29.99485 -95.31293 110 ft 14 kts 180°
2026-05-09 03:45 29.99388 -95.31293 111 ft 15 kts 180°
2026-05-09 03:45 29.99285 -95.31293 112 ft 14 kts 180°
2026-05-09 03:46 29.99181 -95.31293 112 ft 15 kts 180°
2026-05-09 03:46 29.99094 -95.31314 109 ft 13 kts 225°
2026-05-09 03:46 29.99080 -95.31423 110 ft 15 kts 269°
2026-05-09 03:46 29.99080 -95.31538 110 ft 14 kts 270°
2026-05-09 03:47 29.99080 -95.31655 110 ft 15 kts 270°
2026-05-09 03:47 29.99080 -95.31781 110 ft 17 kts 270°
2026-05-09 03:47 29.99080 -95.31915 112 ft 16 kts 270°
2026-05-09 03:47 29.99080 -95.32052 112 ft 18 kts 270°
2026-05-09 03:48 29.99080 -95.32193 110 ft 17 kts 270°
2026-05-09 03:48 29.99080 -95.32324 112 ft 17 kts 269°
2026-05-09 03:48 29.99080 -95.32466 111 ft 18 kts 272°
2026-05-09 03:48 29.99090 -95.32591 108 ft 15 kts 271°
2026-05-09 03:49 29.99090 -95.32717 109 ft 17 kts 270°
2026-05-09 03:49 29.99091 -95.32855 109 ft 16 kts 270°
2026-05-09 03:49 29.99091 -95.32987 109 ft 17 kts 270°
2026-05-09 03:49 29.99091 -95.33122 109 ft 16 kts 270°
2026-05-09 03:50 29.99091 -95.33256 110 ft 17 kts 270°
2026-05-09 03:50 29.99091 -95.33389 111 ft 17 kts 270°
2026-05-09 03:50 29.99090 -95.33532 111 ft 17 kts 270°
2026-05-09 03:50 29.99090 -95.33676 109 ft 18 kts 270°
2026-05-09 03:51 29.99089 -95.33824 108 ft 19 kts 269°
2026-05-09 03:51 29.99088 -95.33975 108 ft 17 kts 269°
2026-05-09 03:51 29.99087 -95.34110 109 ft 18 kts 269°
2026-05-09 03:51 29.99086 -95.34247 109 ft 17 kts 269°
2026-05-09 03:52 29.99085 -95.34386 110 ft 18 kts 270°
2026-05-09 03:52 29.99085 -95.34533 109 ft 19 kts 270°
2026-05-09 03:52 29.99084 -95.34675 110 ft 17 kts 270°
2026-05-09 03:52 29.99084 -95.34814 109 ft 18 kts 270°
2026-05-09 03:53 29.99088 -95.34948 108 ft 16 kts 272°
2026-05-09 03:53 29.99091 -95.35079 111 ft 16 kts 269°
2026-05-09 03:53 29.99091 -95.35213 109 ft 17 kts 270°
2026-05-09 03:53 29.99090 -95.35348 109 ft 16 kts 270°
2026-05-09 03:54 29.99077 -95.35457 109 ft 14 kts 234°
2026-05-09 03:54 29.99019 -95.35483 110 ft 14 kts 185°
2026-05-09 03:54 29.98921 -95.35504 110 ft 14 kts 214°
2026-05-09 03:54 29.98864 -95.35594 109 ft 13 kts 243°
2026-05-09 03:55 29.98832 -95.35666 110 ft 4 kts 243°
2026-05-09 03:55 29.98831 -95.35668 110 ft 0 kts 243°
2026-05-09 03:57 29.98827 -95.35676 110 ft 3 kts 242°
2026-05-09 03:57 29.98814 -95.35704 111 ft 5 kts 242°
2026-05-09 03:57 29.98793 -95.35748 109 ft 7 kts 234°
2026-05-09 03:57 29.98749 -95.35761 110 ft 7 kts 164°
2026-05-09 03:58 29.98721 -95.35746 111 ft 6 kts 152°
2026-05-09 03:58 29.98471 -95.35588 110 ft 89 kts 152°
2026-05-09 03:58 29.97645 -95.35087 172 ft 171 kts 151°
2026-05-09 03:58 29.96524 -95.34388 929 ft 192 kts 149°
2026-05-09 03:59 29.95394 -95.33591 2182 ft 178 kts 151°
2026-05-09 03:59 29.94243 -95.32858 2836 ft 217 kts 154°
2026-05-09 03:59 29.92817 -95.32046 2673 ft 224 kts 163°
2026-05-09 03:59 29.91348 -95.32128 2733 ft 214 kts 206°
2026-05-09 04:00 29.90241 -95.33242 3050 ft 214 kts 231°
2026-05-09 04:00 29.89640 -95.34806 3316 ft 215 kts 255°
2026-05-09 04:00 29.89389 -95.36498 3588 ft 219 kts 258°
2026-05-09 04:00 29.89164 -95.38244 3845 ft 221 kts 259°
2026-05-09 04:01 29.88918 -95.40090 3909 ft 249 kts 259°
2026-05-09 04:01 29.88638 -95.42122 4494 ft 262 kts 258°
2026-05-09 04:01 29.88075 -95.44099 5278 ft 260 kts 239°
2026-05-09 04:01 29.87127 -95.45879 6583 ft 266 kts 238°
2026-05-09 04:02 29.86183 -95.47720 8064 ft 268 kts 239°
2026-05-09 04:02 29.85238 -95.49591 9488 ft 272 kts 240°
2026-05-09 04:02 29.84296 -95.51517 10746 ft 282 kts 241°
2026-05-09 04:02 29.83324 -95.53612 11410 ft 308 kts 248°
2026-05-09 04:03 29.82935 -95.56166 11910 ft 341 kts 273°
2026-05-09 04:03 29.83570 -95.58823 13162 ft 347 kts 294°
2026-05-09 04:03 29.84718 -95.61253 14308 ft 354 kts 297°
2026-05-09 04:03 29.85965 -95.63721 15549 ft 358 kts 297°
2026-05-09 04:04 29.87238 -95.66207 16871 ft 360 kts 297°
2026-05-09 04:04 29.88512 -95.68711 18157 ft 364 kts 297°
2026-05-09 04:04 29.89778 -95.71221 19177 ft 370 kts 296°
2026-05-09 04:04 29.91071 -95.73809 20239 ft 374 kts 296°
2026-05-09 04:05 29.92371 -95.76428 21315 ft 379 kts 295°
2026-05-09 04:05 29.93680 -95.79079 22363 ft 383 kts 294°
2026-05-09 04:05 29.95009 -95.81774 23391 ft 389 kts 294°
2026-05-09 04:05 29.96355 -95.84512 24238 ft 394 kts 294°
2026-05-09 04:06 29.97719 -95.87285 25126 ft 398 kts 293°
2026-05-09 04:06 29.99093 -95.90081 26032 ft 402 kts 292°
2026-05-09 04:06 30.00478 -95.92900 26911 ft 406 kts 292°
2026-05-09 04:06 30.01880 -95.95758 27753 ft 410 kts 292°
2026-05-09 04:07 30.03295 -95.98643 28548 ft 416 kts 291°
2026-05-09 04:07 30.04728 -96.01566 29370 ft 420 kts 291°
2026-05-09 04:07 30.06151 -96.04474 30179 ft 421 kts 290°
2026-05-09 04:07 30.07312 -96.07500 31212 ft 402 kts 279°
2026-05-09 04:08 30.07817 -96.10588 32255 ft 386 kts 273°
2026-05-09 04:08 30.08233 -96.13651 33136 ft 385 kts 273°
2026-05-09 04:08 30.08677 -96.16703 33930 ft 384 kts 274°
2026-05-09 04:08 30.09135 -96.19700 34657 ft 381 kts 274°
2026-05-09 04:09 30.09601 -96.22711 35351 ft 380 kts 274°
2026-05-09 04:09 30.10069 -96.25735 35706 ft 380 kts 274°
2026-05-09 04:09 30.10989 -96.31702 35716 ft 378 kts 274°
2026-05-09 04:10 30.11908 -96.37699 35720 ft 378 kts 274°
2026-05-09 04:10 30.12823 -96.43686 35733 ft 378 kts 274°
2026-05-09 04:11 30.13734 -96.49671 35726 ft 379 kts 274°
2026-05-09 04:11 30.14641 -96.55644 35734 ft 379 kts 274°
2026-05-09 04:12 30.15551 -96.61651 35780 ft 379 kts 274°
2026-05-09 04:12 30.16457 -96.67657 35824 ft 379 kts 274°
2026-05-09 04:13 30.17353 -96.73618 35869 ft 379 kts 274°
2026-05-09 04:13 30.18253 -96.79618 35898 ft 379 kts 273°
2026-05-09 04:14 30.19151 -96.85625 35941 ft 378 kts 273°
2026-05-09 04:14 30.20039 -96.91588 35949 ft 378 kts 273°
2026-05-09 04:15 30.20928 -96.97580 35953 ft 378 kts 273°
2026-05-09 04:15 30.21815 -97.03571 35958 ft 378 kts 273°
2026-05-09 04:16 30.22702 -97.09570 35935 ft 378 kts 273°
2026-05-09 04:16 30.23593 -97.15530 35912 ft 378 kts 273°
2026-05-09 04:17 30.24486 -97.21525 35881 ft 378 kts 273°
2026-05-09 04:17 30.25377 -97.27524 35871 ft 378 kts 273°
2026-05-09 04:18 30.26265 -97.33524 35847 ft 379 kts 273°
2026-05-09 04:18 30.27150 -97.39535 35865 ft 379 kts 273°
2026-05-09 04:19 30.28034 -97.45550 35880 ft 379 kts 273°
2026-05-09 04:19 30.28909 -97.51535 35898 ft 379 kts 273°
2026-05-09 04:20 30.29790 -97.57565 35905 ft 380 kts 273°
2026-05-09 04:20 30.30668 -97.63608 35917 ft 380 kts 273°
2026-05-09 04:21 30.31542 -97.69631 35909 ft 380 kts 272°
2026-05-09 04:22 30.33157 -97.78636 35912 ft 384 kts 277°
2026-05-09 04:22 30.34475 -97.84620 35906 ft 383 kts 277°
2026-05-09 04:23 30.35769 -97.90607 35899 ft 383 kts 276°
2026-05-09 04:23 30.37030 -97.96564 35885 ft 383 kts 276°
2026-05-09 04:24 30.38288 -98.02551 35886 ft 382 kts 276°
2026-05-09 04:24 30.39543 -98.08545 35899 ft 382 kts 276°
2026-05-09 04:25 30.40795 -98.14540 35901 ft 382 kts 276°
2026-05-09 04:25 30.42034 -98.20481 35917 ft 382 kts 276°
2026-05-09 04:26 30.43279 -98.26475 35926 ft 382 kts 276°
2026-05-09 04:26 30.44527 -98.32493 35928 ft 383 kts 276°
2026-05-09 04:27 30.45722 -98.38470 35926 ft 382 kts 275°
2026-05-09 04:27 30.46855 -98.44500 35925 ft 382 kts 275°
2026-05-09 04:28 30.47973 -98.50492 35920 ft 383 kts 275°
2026-05-09 04:28 30.49109 -98.56552 35908 ft 383 kts 275°
2026-05-09 04:29 30.50236 -98.62568 35892 ft 383 kts 275°
2026-05-09 04:29 30.51368 -98.68618 35887 ft 384 kts 275°
2026-05-09 04:30 30.52499 -98.74673 35886 ft 384 kts 275°
2026-05-09 04:30 30.53620 -98.80693 35882 ft 384 kts 275°
2026-05-09 04:31 30.54746 -98.86754 35873 ft 384 kts 275°
2026-05-09 04:31 30.55869 -98.92820 35864 ft 384 kts 275°
2026-05-09 04:32 30.56982 -98.98843 35862 ft 383 kts 274°
2026-05-09 04:32 30.58100 -99.04911 35854 ft 383 kts 275°
2026-05-09 04:33 30.59205 -99.10929 35843 ft 384 kts 274°
2026-05-09 04:33 30.60318 -99.17007 35860 ft 383 kts 274°
2026-05-09 04:34 30.61426 -99.23069 35849 ft 384 kts 274°
2026-05-09 04:34 30.62530 -99.29132 35846 ft 384 kts 274°
2026-05-09 04:35 30.63629 -99.35180 35842 ft 384 kts 274°
2026-05-09 04:35 30.64730 -99.41259 35852 ft 384 kts 274°
2026-05-09 04:36 30.65820 -99.47292 35869 ft 384 kts 274°
2026-05-09 04:36 30.66914 -99.53363 35875 ft 384 kts 274°
2026-05-09 04:37 30.68005 -99.59438 35887 ft 384 kts 274°
2026-05-09 04:37 30.69094 -99.65514 35890 ft 383 kts 274°
2026-05-09 04:38 30.70172 -99.71546 35898 ft 383 kts 274°
2026-05-09 04:38 30.71254 -99.77622 35897 ft 383 kts 274°
2026-05-09 04:39 30.72334 -99.83703 35890 ft 384 kts 274°
2026-05-09 04:39 30.73406 -99.89753 35882 ft 384 kts 274°
2026-05-09 04:40 30.74480 -99.95834 35871 ft 384 kts 274°
2026-05-09 04:40 30.75545 -100.01884 35861 ft 384 kts 274°
2026-05-09 04:41 30.76614 -100.07972 35853 ft 384 kts 274°
2026-05-09 04:41 30.77501 -100.13035 35861 ft 383 kts 274°
2026-05-09 04:42 30.78565 -100.19122 35866 ft 383 kts 274°
2026-05-09 04:42 30.79618 -100.25171 35865 ft 383 kts 274°
2026-05-09 04:43 30.80677 -100.31271 35873 ft 384 kts 274°
2026-05-09 04:43 30.81731 -100.37353 35886 ft 384 kts 273°
2026-05-09 04:44 30.82785 -100.43462 35903 ft 385 kts 273°
2026-05-09 04:44 30.83836 -100.49567 35917 ft 385 kts 273°
2026-05-09 04:45 30.84881 -100.55652 35924 ft 385 kts 273°
2026-05-09 04:45 30.85929 -100.61778 35929 ft 386 kts 273°
2026-05-09 04:46 30.86974 -100.67903 35927 ft 386 kts 273°
2026-05-09 04:46 30.88019 -100.74043 35919 ft 386 kts 273°
2026-05-09 04:47 30.89055 -100.80149 35901 ft 386 kts 273°
2026-05-09 04:47 30.90095 -100.86300 35901 ft 386 kts 273°
2026-05-09 04:48 30.91130 -100.92439 35911 ft 386 kts 273°
2026-05-09 04:48 30.92163 -100.98582 35925 ft 386 kts 273°
2026-05-09 04:49 30.93186 -101.04690 35932 ft 386 kts 273°
2026-05-09 04:49 30.94213 -101.10830 35940 ft 386 kts 273°
2026-05-09 04:50 30.95235 -101.16970 35943 ft 386 kts 273°
2026-05-09 04:50 30.96252 -101.23093 35935 ft 385 kts 273°
2026-05-09 04:51 30.97268 -101.29229 35928 ft 385 kts 273°
2026-05-09 04:51 30.97776 -101.32313 36061 ft 388 kts 276°
2026-05-09 04:51 30.98290 -101.35457 36005 ft 400 kts 276°
2026-05-09 04:52 30.99342 -101.41869 35906 ft 406 kts 276°
2026-05-09 04:52 31.00404 -101.48311 35862 ft 403 kts 276°
2026-05-09 04:53 31.01454 -101.54711 35866 ft 400 kts 277°
2026-05-09 04:53 31.02490 -101.61066 35869 ft 398 kts 277°
2026-05-09 04:54 31.03523 -101.67426 35872 ft 398 kts 277°
2026-05-09 04:54 31.04544 -101.73743 35866 ft 399 kts 277°
2026-05-09 04:55 31.05572 -101.80115 35859 ft 400 kts 277°
2026-05-09 04:55 31.06596 -101.86484 35852 ft 402 kts 277°
2026-05-09 04:56 31.07628 -101.92927 35863 ft 404 kts 277°
2026-05-09 04:56 31.08663 -101.99402 35861 ft 407 kts 277°
2026-05-09 04:57 31.09695 -102.05889 35846 ft 409 kts 278°
2026-05-09 04:57 31.10734 -102.12433 35849 ft 410 kts 278°
2026-05-09 04:58 31.11765 -102.18951 35843 ft 411 kts 278°
2026-05-09 04:58 31.12804 -102.25538 35839 ft 412 kts 278°
2026-05-09 04:59 31.13732 -102.31447 35845 ft 412 kts 278°
2026-05-09 04:59 31.14766 -102.38052 35839 ft 413 kts 278°
2026-05-09 05:00 31.15792 -102.44624 35841 ft 414 kts 278°
2026-05-09 05:00 31.16822 -102.51246 35835 ft 414 kts 278°
2026-05-09 05:01 31.17850 -102.57884 35834 ft 415 kts 278°
2026-05-09 05:01 31.18878 -102.64537 35832 ft 416 kts 278°
2026-05-09 05:02 31.19903 -102.71202 35842 ft 417 kts 278°
2026-05-09 05:02 31.20921 -102.77840 35852 ft 418 kts 278°
2026-05-09 05:03 31.21942 -102.84528 35864 ft 419 kts 279°
2026-05-09 05:03 31.22965 -102.91247 35859 ft 420 kts 279°
2026-05-09 05:04 31.23987 -102.97985 35855 ft 421 kts 279°
2026-05-09 05:04 31.25007 -103.04734 35843 ft 422 kts 279°
2026-05-09 05:05 31.26025 -103.11498 35838 ft 423 kts 279°
2026-05-09 05:05 31.27035 -103.18229 35870 ft 423 kts 279°
2026-05-09 05:06 31.28049 -103.25016 35891 ft 424 kts 279°
2026-05-09 05:06 31.29061 -103.31817 35921 ft 424 kts 279°
2026-05-09 05:07 31.30063 -103.38573 35941 ft 424 kts 279°
2026-05-09 05:07 31.31069 -103.45380 35961 ft 424 kts 279°
2026-05-09 05:08 31.32071 -103.52187 35963 ft 425 kts 279°
2026-05-09 05:08 31.33071 -103.59003 35964 ft 425 kts 279°
2026-05-09 05:09 31.34068 -103.65828 35941 ft 425 kts 279°
2026-05-09 05:09 31.35062 -103.72659 35920 ft 426 kts 280°
2026-05-09 05:10 31.36052 -103.79493 35897 ft 426 kts 280°
2026-05-09 05:10 31.37036 -103.86301 35882 ft 427 kts 280°
2026-05-09 05:11 31.38024 -103.93173 35853 ft 427 kts 280°
2026-05-09 05:11 31.39009 -104.00044 35857 ft 428 kts 280°
2026-05-09 05:12 31.39984 -104.06880 35858 ft 428 kts 281°
2026-05-09 05:12 31.40963 -104.13767 35859 ft 429 kts 281°
2026-05-09 05:13 31.41940 -104.20664 35864 ft 429 kts 281°
2026-05-09 05:13 31.42913 -104.27570 35873 ft 429 kts 281°
2026-05-09 05:14 31.43877 -104.34435 35858 ft 428 kts 281°
2026-05-09 05:14 31.44827 -104.41223 35319 ft 418 kts 281°
2026-05-09 05:14 31.45293 -104.44581 34727 ft 418 kts 281°
2026-05-09 05:15 31.45675 -104.47971 34026 ft 421 kts 279°
2026-05-09 05:15 31.46006 -104.51382 33409 ft 420 kts 279°
2026-05-09 05:15 31.46334 -104.54748 32827 ft 419 kts 280°
2026-05-09 05:15 31.46679 -104.58143 32250 ft 417 kts 281°
2026-05-09 05:16 31.47028 -104.61507 31678 ft 415 kts 281°
2026-05-09 05:16 31.47381 -104.64866 31142 ft 413 kts 281°
2026-05-09 05:16 31.47731 -104.68207 30595 ft 412 kts 281°
2026-05-09 05:16 31.48074 -104.71486 30057 ft 411 kts 281°
2026-05-09 05:17 31.48421 -104.74812 29445 ft 410 kts 281°
2026-05-09 05:17 31.48764 -104.78115 28832 ft 408 kts 281°
2026-05-09 05:17 31.49105 -104.81419 28272 ft 406 kts 281°
2026-05-09 05:17 31.49442 -104.84691 27706 ft 404 kts 281°
2026-05-09 05:18 31.49778 -104.87964 27171 ft 402 kts 281°
2026-05-09 05:18 31.50109 -104.91202 26641 ft 401 kts 281°
2026-05-09 05:18 31.50435 -104.94403 26115 ft 400 kts 281°
2026-05-09 05:18 31.50765 -104.97635 25591 ft 399 kts 281°
2026-05-09 05:19 31.51093 -105.00869 25064 ft 398 kts 280°
2026-05-09 05:19 31.51419 -105.04088 24543 ft 397 kts 280°
2026-05-09 05:19 31.51745 -105.07305 24019 ft 397 kts 280°
2026-05-09 05:19 31.52069 -105.10520 23495 ft 396 kts 279°
2026-05-09 05:20 31.52392 -105.13733 22909 ft 396 kts 279°
2026-05-09 05:20 31.52712 -105.16927 22366 ft 394 kts 279°
2026-05-09 05:20 31.53026 -105.20070 21829 ft 392 kts 279°
2026-05-09 05:20 31.53341 -105.23235 21315 ft 389 kts 279°
2026-05-09 05:21 31.53654 -105.26379 20812 ft 387 kts 279°
2026-05-09 05:21 31.53965 -105.29512 20305 ft 386 kts 279°
2026-05-09 05:21 31.54273 -105.32629 19799 ft 384 kts 279°
2026-05-09 05:21 31.54579 -105.35733 19297 ft 382 kts 279°
2026-05-09 05:22 31.54884 -105.38827 18793 ft 381 kts 279°
2026-05-09 05:22 31.55185 -105.41890 18282 ft 381 kts 279°
2026-05-09 05:22 31.55488 -105.44973 17697 ft 380 kts 279°
2026-05-09 05:22 31.55788 -105.48037 17173 ft 377 kts 279°
2026-05-09 05:23 31.56085 -105.51088 16642 ft 374 kts 279°
2026-05-09 05:23 31.56378 -105.54111 16138 ft 371 kts 279°
2026-05-09 05:23 31.56670 -105.57117 15630 ft 368 kts 279°
2026-05-09 05:23 31.56959 -105.60094 15137 ft 365 kts 279°
2026-05-09 05:24 31.57242 -105.63037 14647 ft 356 kts 279°
2026-05-09 05:24 31.57508 -105.65817 14174 ft 340 kts 279°
2026-05-09 05:24 31.57773 -105.68570 13735 ft 339 kts 279°
2026-05-09 05:24 31.58040 -105.71330 13241 ft 339 kts 279°
2026-05-09 05:25 31.58303 -105.74077 12800 ft 336 kts 279°
2026-05-09 05:25 31.58558 -105.76756 12563 ft 324 kts 279°
2026-05-09 05:25 31.59596 -105.81587 11954 ft 295 kts 302°
2026-05-09 05:26 31.60633 -105.83625 11504 ft 293 kts 303°
2026-05-09 05:26 31.61687 -105.85665 11080 ft 292 kts 303°
2026-05-09 05:26 31.62731 -105.87699 10668 ft 290 kts 303°
2026-05-09 05:26 31.63418 -105.89047 10368 ft 289 kts 303°
2026-05-09 05:27 31.64442 -105.91073 9923 ft 289 kts 302°
2026-05-09 05:27 31.65463 -105.93102 9470 ft 288 kts 302°
2026-05-09 05:27 31.66477 -105.95126 9041 ft 286 kts 302°
2026-05-09 05:27 31.67482 -105.97137 8695 ft 283 kts 301°
2026-05-09 05:28 31.68476 -105.99130 8483 ft 281 kts 301°
2026-05-09 05:28 31.69451 -106.01084 8340 ft 281 kts 301°
2026-05-09 05:28 31.70442 -106.03074 8179 ft 283 kts 301°
2026-05-09 05:28 31.71441 -106.05076 8039 ft 285 kts 301°
2026-05-09 05:29 31.72437 -106.07074 7940 ft 277 kts 301°
2026-05-09 05:29 31.73411 -106.08950 7881 ft 259 kts 307°
2026-05-09 05:29 31.74530 -106.10520 7872 ft 243 kts 312°
2026-05-09 05:29 31.75653 -106.11966 7882 ft 237 kts 313°
2026-05-09 05:30 31.76740 -106.13385 7901 ft 235 kts 312°
2026-05-09 05:30 31.77826 -106.14826 7916 ft 236 kts 311°
2026-05-09 05:30 31.78911 -106.16276 7936 ft 236 kts 311°
2026-05-09 05:30 31.79990 -106.17725 7959 ft 234 kts 311°
2026-05-09 05:31 31.81059 -106.19159 7977 ft 233 kts 311°
2026-05-09 05:31 31.82129 -106.20597 7973 ft 232 kts 311°
2026-05-09 05:31 31.83148 -106.21968 7896 ft 214 kts 311°
2026-05-09 05:31 31.84109 -106.23261 7576 ft 206 kts 311°
2026-05-09 05:32 31.85032 -106.24504 7266 ft 198 kts 311°
2026-05-09 05:32 31.85938 -106.25728 6912 ft 198 kts 309°
2026-05-09 05:32 31.86674 -106.27089 6573 ft 197 kts 291°
2026-05-09 05:32 31.86948 -106.28626 6173 ft 188 kts 272°
2026-05-09 05:33 31.86779 -106.30086 5797 ft 180 kts 255°
2026-05-09 05:33 31.86261 -106.31419 5378 ft 175 kts 239°
2026-05-09 05:33 31.85546 -106.32514 5080 ft 163 kts 231°
2026-05-09 05:33 31.84836 -106.33457 4860 ft 144 kts 229°
2026-05-09 05:34 31.84207 -106.34346 4678 ft 143 kts 229°
2026-05-09 05:34 31.83552 -106.35242 4541 ft 145 kts 229°
2026-05-09 05:34 31.82903 -106.36166 4255 ft 145 kts 227°
2026-05-09 05:34 31.82281 -106.37035 4021 ft 133 kts 224°
2026-05-09 05:35 31.81687 -106.37842 3958 ft 124 kts 229°
2026-05-09 05:35 31.81218 -106.38504 3951 ft 89 kts 230°
2026-05-09 05:35 31.80971 -106.38850 3947 ft 34 kts 229°
2026-05-09 05:35 31.80860 -106.39001 3944 ft 19 kts 226°
2026-05-09 05:36 31.80785 -106.39000 3941 ft 11 kts 145°
2026-05-09 05:36 31.80716 -106.38935 3939 ft 14 kts 141°
2026-05-09 05:36 31.80684 -106.38836 3940 ft 14 kts 64°
2026-05-09 05:36 31.80754 -106.38751 3943 ft 14 kts 42°
2026-05-09 05:37 31.80827 -106.38670 3944 ft 15 kts 46°
2026-05-09 05:37 31.80893 -106.38581 3946 ft 15 kts 50°
2026-05-09 05:37 31.80960 -106.38488 3948 ft 15 kts 50°
2026-05-09 05:37 31.81029 -106.38391 3948 ft 17 kts 50°
2026-05-09 05:38 31.81106 -106.38282 3949 ft 17 kts 50°
2026-05-09 05:38 31.81186 -106.38169 3948 ft 19 kts 49°
2026-05-09 05:38 31.81267 -106.38055 3948 ft 18 kts 50°
2026-05-09 05:38 31.81339 -106.37955 3950 ft 16 kts 49°
2026-05-09 05:39 31.81412 -106.37855 3951 ft 16 kts 49°
2026-05-09 05:39 31.81485 -106.37754 3954 ft 16 kts 50°
2026-05-09 05:39 31.81558 -106.37651 3957 ft 16 kts 49°
2026-05-09 05:39 31.81632 -106.37549 3957 ft 17 kts 50°
2026-05-09 05:40 31.81705 -106.37446 3960 ft 16 kts 50°
2026-05-09 05:40 31.81785 -106.37342 3958 ft 18 kts 50°
2026-05-09 05:40 31.81865 -106.37226 3959 ft 18 kts 51°
2026-05-09 05:40 31.81925 -106.37134 3959 ft 13 kts 64°
2026-05-09 05:41 31.81888 -106.37041 3957 ft 13 kts 141°
2026-05-09 05:41 31.81849 -106.36997 3958 ft 7 kts 128°
2026-05-09 05:41 31.81851 -106.36936 3959 ft 11 kts 55°
2026-05-09 05:41 31.81903 -106.36867 3959 ft 11 kts 51°
2026-05-09 05:42 31.81945 -106.36801 3960 ft 9 kts 63°
2026-05-09 05:42 31.81938 -106.36738 3962 ft 7 kts 117°
2026-05-09 05:42 31.81913 -106.36710 3962 ft 3 kts 141°
2026-05-09 05:42 31.81903 -106.36700 3963 ft 0 kts 141°